Starlink 3246

operational
NORAD ID: 49732 Int'l Des: 2021-115 Owner: SPXS Country: US Constellation: starlink
LEOCIRCULAR

Starlink 3246について

説明を読み込み中...

リアルタイム位置

3D地球を読み込み中...

次回通過

高度履歴

Altitude vs Time

uPlot chart will show altitude changes over time

軌道要素

1 49732U 21115J 25304.63487975 .00000856 00000-0 71880-4 0 9995
2 49732 53.2174 18.6232 0001419 97.2245 262.8908 15.08845284215902
Epoch: Oct 31, 2025 • Age: 25 hours

現在のステータス

高度 542.7 km
速度 7.59 km/s
衛星直下点 -9.45°S, 76.23°E
打ち上げ日 Dec 2, 2021
運用期間 3.9 years
タイプ internet

技術仕様

分類 Payload
質量 290.00 kg
乾燥質量 270.00 kg
総質量 290.00 kg
長さ 0.20 m
直径 2.80 m
スパン 9.00 m
形状 Box + pan
製造者 SPXS
バスタイプ Starlink
フェーズステータス In Orbit
所有者/国 SPXS/US

大規模コンステレーション

Loading constellations...